Temperature
18 18 18 18 18 18 18 18 18 18 18 18 18 18 18 17 18 18 18 18 18 18 18 18 18 18 18 18 18 18 18 18 18 18 18 18 18 17 17 17 17 17 17
18 18 18 18 18 17 17 17 17 17 17 17 17 17 17 17 17 17 18 18 18 18 18 18 17 17 18 18 18 18 18 18 18 18 18 18 18 17 17 17 17 17 17
18 18 18 18 18 17 17 17 17 17 17 17 17 17 17 17 17 17 18 18 18 18 18 18 17 17 17 18 18 18 18 18 18 18 18 18 18 18 17 17 17 17 17
18 18 18 17 17 17 17 17 17 17 16 16 16 16 16 17 17 17 17 18 18 18 18 18 18 17 18 18 18 18 18 18 18 18 18 18 18 18 18 17 17 17 17
18 18 17 17 17 17 17 17 16 16 16 16 16 16 16 16 17 17 17 17 18 18 18 18 18 17 17 17 18 18 18 18 18 18 18 18 18 18 18 18 18 18 18
18 18 17 17 17 16 16 16 16 16 16 15 15 16 16 16 16 17 17 17 17 17 18 18 18 17 17 17 17 18 17 18 18 18 18 18 18 18 18 18 18 18 18
18 18 17 17 16 16 16 16 16 16 16 15 15 15 16 16 16 16 16 17 17 17 17 17 17 17 18 17 17 17 17 17 17 18 18 18 18 18 18 18 18 18 18
18 18 18 17 17 17 17 16 16 16 16 15 15 14 14 15 16 16 16 16 17 17 17 17 17 17 17 17 17 17 17 17 17 17 17 17 17 18 18 18 18 18 18
19 18 18 18 18 18 17 17 17 16 16 16 15 14 13 13 14 16 16 17 17 17 17 17 17 17 17 17 17 17 17 16 17 17 17 17 17 17 18 18 18 18 17
18 18 18 18 18 18 18 17 17 17 16 16 15 14 13 13 13 14 16 16 16 17 17 17 17 17 17 17 17 17 17 16 17 17 17 17 17 17 17 17 17 17 17
18 18 18 18 18 18 18 17 17 17 16 15 15 14 14 14 13 13 14 15 16 17 16 17 17 17 17 17 17 17 17 17 17 16 16 16 16 16 16 17 17 17 17
17 17 17 17 17 17 17 17 17 17 16 15 14 14 14 14 14 13 13 14 15 16 16 17 17 17 17 17 17 16 16 16 16 16 16 16 16 16 16 16 16 17 17
16 17 17 17 17 17 17 17 17 16 16 15 14 14 13 13 13 13 13 13 13 15 16 17 17 17 17 17 17 17 16 16 16 16 16 16 16 16 16 16 16 16 16
14 15 16 16 16 16 16 16 16 16 16 15 14 14 13 13 14 13 13 13 13 13 15 16 16 16 16 17 17 17 16 16 16 16 16 16 16 16 16 16 16 16 16
13 13 14 14 14 14 14 15 15 15 15 15 14 13 13 13 14 14 14 13 13 13 13 15 15 15 16 16 16 16 16 16 16 16 16 16 16 16 16 16 16 16 16
12 13 13 13 13 13 13 14 14 15 15 15 14 13 13 13 13 14 14 14 14 13 13 14 14 14 15 15 15 15 15 15 15 16 16 16 15 15 16 16 15 15 15
11 12 12 12 12 12 13 13 14 14 14 14 14 14 13 13 13 14 14 14 14 14 14 14 13 13 13 14 14 14 14 14 15 15 15 15 15 15 15 14 14 14 14
11 11 11 11 11 11 12 12 13 13 14 14 14 14 13 13 13 14 14 14 14 14 14 13 13 13 13 13 13 12 13 13 14 13 14 14 14 14 13 13 13 13 13
11 10 10 11 11 11 11 11 12 12 13 13 14 13 13 13 13 14 14 14 14 14 14 13 13 13 13 13 12 12 12 12 13 12 12 12 13 13 13 13 13 13 13
10 10 10 10 10 10 10 10 11 11 12 12 13 13 13 13 13 14 14 14 14 14 14 13 13 13 12 12 12 12 11 11 11 11 12 12 12 12 12 12 12 13 13
10 10 10 10 10 10 10 10 10 10 11 12 12 13 13 13 13 13 14 14 14 14 13 13 12 12 12 12 12 11 11 11 11 11 11 11 11 12 12 12 12 12 12
9 9 9 9 10 10 10 10 10 10 10 11 12 12 13 13 13 13 13 14 14 14 13 13 12 12 12 12 11 11 11 11 10 10 11 10 11 11 11 11 11 11 11
9 9 9 9 9 9 10 10 10 10 10 10 11 12 12 13 13 13 13 13 14 13 13 13 13 12 12 12 11 11 11 11 10 10 10 10 10 10 10 10 10 10 10
8 8 8 8 9 9 9 9 9 9 9 10 10 11 11 12 12 13 13 13 13 13 13 12 12 12 12 11 11 11 11 10 10 9 10 10 9 10 10 10 9 9 9
8 8 8 8 8 9 9 9 9 9 9 9 10 10 11 11 12 12 13 13 13 12 12 12 12 12 11 11 11 10 10 10 9 9 9 10 9 9 9 9 9 9 8
7 7 7 7 7 8 9 9 9 9 9 9 9 10 10 11 11 12 12 12 12 12 11 11 11 11 11 11 11 11 11 11 10 9 9 10 9 9 8 8 8 8 8
Wind_Speed
7 6 4 4 5 6 4 4 4 6 7 6 8 7 5 6 8 9 11 15 17 18 21 24 28 28 27 26 25 25 24 24 24 25 25 25 25 24 23 23 23 23 23
5 5 4 4 3 4 4 4 5 5 4 3 4 4 5 6 7 8 10 12 16 19 22 25 27 28 27 27 26 25 25 25 25 25 26 26 26 25 25 24 25 25 25
6 5 4 3 3 4 4 3 3 2 2 2 4 4 5 5 6 8 10 11 13 16 21 24 27 28 27 27 27 26 26 26 26 26 26 26 27 27 26 26 26 26 26
8 5 4 3 3 3 2 2 2 2 2 2 3 4 4 5 6 8 9 11 11 12 15 21 24 26 27 28 27 26 26 26 26 27 27 27 27 27 27 27 27 27 27
9 5 4 3 3 2 2 2 1 2 1 2 3 4 5 5 7 8 8 9 11 13 13 16 20 23 26 28 28 27 26 26 27 27 27 28 28 28 28 28 28 27 27
9 6 4 4 4 2 1 1 1 1 1 2 3 4 5 6 6 7 9 8 9 12 14 15 15 17 23 27 28 27 27 27 27 28 28 28 28 28 28 27 27 27 26
9 6 5 5 4 4 3 3 2 2 0 1 1 3 5 6 6 5 5 5 7 8 10 12 13 13 14 21 26 27 28 27 26 27 28 28 28 27 27 27 26 26 25
8 7 7 5 5 4 3 3 3 2 1 1 2 1 4 5 4 3 2 3 5 5 6 8 10 11 12 12 16 24 27 26 25 25 26 27 28 28 27 27 26 25 24
7 7 9 7 6 5 4 3 2 3 2 0 2 2 0 2 4 4 4 4 4 5 5 5 6 10 13 13 13 17 23 23 23 23 24 26 28 28 27 26 25 24 23
7 7 9 9 7 5 5 4 3 4 4 1 1 2 3 3 2 4 4 4 5 5 6 5 5 6 10 11 14 17 20 21 21 21 23 24 26 26 25 25 24 23 23
4 6 8 8 8 6 6 5 4 4 3 3 3 3 3 3 4 4 6 5 5 5 6 6 6 6 7 10 10 14 18 18 17 18 20 22 23 24 24 22 22 22 23
3 4 6 7 8 7 7 6 6 5 4 4 4 4 4 3 4 4 5 6 6 5 6 6 6 5 5 7 10 12 14 13 11 11 12 14 17 20 20 18 18 19 20
4 5 3 6 6 7 7 6 6 5 5 5 5 5 5 5 5 4 5 5 5 4 4 4 4 3 2 3 4 7 8 10 9 9 9 9 9 10 9 8 8 9 11
4 6 6 3 4 6 7 6 5 6 5 6 7 6 5 6 5 5 5 4 5 4 3 5 2 1 3 4 7 9 7 11 13 14 14 14 13 12 11 10 8 5 4
5 6 7 6 4 5 6 7 6 7 6 6 7 7 6 6 6 6 6 6 4 4 3 4 1 2 4 5 7 8 9 13 16 17 18 17 17 16 14 13 12 11 11
5 7 7 7 7 6 7 7 7 7 8 7 6 7 7 6 6 6 6 5 6 5 4 3 1 2 5 6 9 9 11 15 16 18 19 19 18 17 16 16 15 15 14
6 6 6 7 7 7 7 6 7 8 9 8 8 8 8 7 6 5 5 5 5 6 6 4 2 3 5 9 8 9 10 10 12 17 18 18 18 17 16 16 15 15 15
7 7 6 7 7 7 6 6 7 7 8 8 9 9 9 7 7 6 5 5 5 6 5 5 3 4 5 10 11 9 6 9 11 16 17 18 18 18 17 16 16 16 16
9 8 7 7 8 7 7 7 6 6 6 7 8 9 9 8 8 6 6 6 5 5 5 5 4 3 5 9 12 10 10 9 10 15 17 17 18 18 17 17 18 18 18
9 9 9 8 8 8 8 8 6 5 5 6 7 9 10 10 9 8 7 7 5 5 5 6 6 7 7 9 11 11 9 8 8 9 11 14 17 18 18 19 19 19 20
10 10 10 9 9 8 8 8 7 6 5 6 7 8 9 11 12 9 7 6 6 5 5 7 8 7 9 11 10 8 11 10 8 6 8 7 7 8 11 15 18 19 20
8 8 9 10 10 10 11 12 9 6 6 6 7 7 8 10 11 11 10 9 9 8 8 7 6 10 10 11 9 11 12 12 6 3 6 6 5 6 5 9 14 17 18
7 7 8 9 10 12 16 15 14 8 7 7 6 6 7 8 10 7 7 6 4 7 9 8 11 11 12 13 13 12 10 7 7 8 7 5 3 4 3 8 13 15 17
6 7 8 9 9 12 16 16 15 9 7 7 7 7 8 8 9 9 7 5 4 5 7 7 9 10 12 12 11 11 12 10 9 6 5 4 3 3 3 4 6 9 12
7 7 8 9 9 10 14 16 13 6 6 7 6 6 8 10 14 14 10 8 7 6 10 14 14 15 17 16 14 11 11 12 11 6 3 4 3 3 2 1 1 3 5
8 8 9 9 9 10 13 15 13 6 6 5 4 3 7 10 16 16 11 10 11 8 10 12 13 14 13 13 12 10 11 12 10 5 4 4 5 4 3 0 1 1 1
Wind_Direction
216 215 210 215 215 211 208 211 217 224 228 228 230 231 230 230 235 235 241 250 255 255 244 230 223 219 219 218 219 220 219 217 215 213 211 212 212 211 209 206 204 204 205
204 206 211 215 212 204 203 201 209 217 227 227 236 231 218 219 231 240 242 251 254 248 241 233 228 226 224 222 221 222 222 219 217 216 215 215 215 215 214 211 209 208 208
184 187 196 208 210 199 193 194 210 205 218 219 238 246 244 239 240 246 249 248 249 250 244 236 230 229 231 231 227 225 224 220 217 216 217 217 217 217 217 215 215 213 211
177 172 185 204 202 187 179 192 203 208 219 224 245 256 254 252 247 248 252 251 247 249 247 242 235 232 234 238 236 231 227 222 219 217 217 218 219 219 218 218 218 216 214
180 171 187 204 189 181 201 220 191 192 226 260 263 260 257 252 248 249 245 247 248 245 243 243 240 237 238 241 240 236 232 226 222 219 218 218 219 220 220 220 219 218 217
175 167 170 171 163 152 147 150 154 161 199 242 278 288 274 262 250 242 244 247 246 245 242 241 239 239 239 240 239 237 235 233 228 222 219 217 218 220 220 219 219 219 218
168 163 159 154 151 149 154 148 144 120 199 185 24 318 294 274 262 257 252 255 256 251 242 238 236 234 238 239 237 235 235 236 235 230 223 218 216 217 218 218 218 219 219
169 168 163 164 161 151 139 124 125 128 160 114 121 9 337 333 338 303 283 269 275 274 254 238 230 228 230 233 235 234 235 237 237 236 231 224 219 216 215 215 216 217 220
176 169 171 168 170 163 166 166 151 149 162 68 133 148 182 290 311 303 291 292 301 296 279 259 234 228 226 227 231 234 235 236 236 238 238 233 226 221 215 214 214 217 221
187 177 179 177 175 171 175 194 169 158 154 193 276 190 193 198 258 305 305 299 312 312 302 282 258 239 229 224 226 227 230 233 231 233 239 241 238 230 221 218 221 223 226
226 202 191 182 178 178 181 189 190 188 172 182 200 215 229 223 218 236 288 306 316 297 293 282 264 246 231 224 223 227 226 229 230 232 232 238 243 239 229 224 227 232 234
322 281 225 197 185 181 184 189 193 197 203 212 219 214 212 218 213 222 262 292 298 292 293 280 269 251 227 215 219 221 221 219 220 224 227 232 238 239 235 230 231 234 236
333 327 279 214 195 188 185 181 191 208 214 222 229 228 224 224 219 219 248 271 279 290 289 289 283 266 193 165 178 184 186 179 170 164 164 176 192 198 197 196 210 224 232
301 321 337 291 217 195 190 188 199 214 215 219 226 223 231 240 230 220 225 246 276 282 283 281 320 48 109 106 111 115 125 140 142 139 139 139 136 130 125 122 119 118 125
309 326 327 322 294 238 216 201 208 216 213 216 222 229 235 245 239 234 228 224 235 263 279 274 280 92 109 105 110 109 114 119 121 120 120 119 117 114 109 104 99 94 90
312 321 320 314 305 282 247 222 217 219 216 220 217 224 234 240 242 237 229 223 220 229 244 253 234 137 131 115 107 106 112 112 111 113 112 111 108 105 101 96 91 88 86
289 295 300 305 305 295 277 253 239 227 221 223 219 220 230 231 234 237 230 221 219 218 238 234 188 142 126 124 113 106 109 107 108 107 108 107 105 102 99 97 94 91 90
267 269 276 284 291 296 300 288 268 257 238 229 223 218 227 229 231 234 229 225 220 213 215 213 181 153 135 137 125 116 107 105 105 106 107 108 106 104 102 101 99 96 93
256 258 256 261 268 274 280 284 282 275 263 247 232 221 221 218 229 231 228 228 226 220 207 193 170 145 136 136 125 115 108 105 102 106 103 103 105 105 104 102 99 97 96
249 254 253 250 252 257 263 265 265 273 278 274 256 235 222 213 218 220 222 223 221 219 199 181 164 155 146 138 131 129 122 115 109 106 101 103 104 102 103 102 101 100 98
249 248 252 253 251 250 253 245 237 251 265 279 276 255 234 217 210 206 207 210 208 203 184 174 165 154 151 149 143 139 133 120 101 107 110 101 97 91 94 101 104 105 103
248 250 250 252 253 255 252 247 235 240 251 262 276 268 241 209 199 199 205 206 203 191 179 169 163 160 157 150 140 142 138 133 121 138 116 104 98 97 87 102 114 112 108
241 248 250 251 251 250 249 249 243 234 240 250 262 256 230 204 181 176 176 162 168 175 172 162 160 156 154 152 144 141 139 127 126 151 128 103 89 92 85 108 116 115 113
234 243 249 250 250 254 249 242 239 232 234 243 249 244 226 197 185 173 158 137 116 108 129 136 142 140 143 141 139 139 134 116 113 128 115 110 106 88 68 77 108 112 112
234 240 245 247 249 255 250 240 228 214 228 242 248 244 226 200 188 171 154 142 123 105 96 107 116 121 126 131 135 133 135 139 143 142 129 113 127 100 79 74 97 125 116
232 241 248 245 244 247 249 238 218 200 218 234 243 246 227 202 182 170 159 153 145 137 126 117 115 120 130 141 148 150 152 152 146 143 167 125 142 131 112 234 196 169 150
Height
1514 1515 1516 1516 1516 1516 1517 1518 1519 1520 1520 1521 1522 1523 1524 1525 1526 1527 1527 1528 1529 1529 1529 1531 1533 1535 1536 1537 1538 1539 1540 1541 1543 1545 1548 1550 1552 1554 1556 1559 1561 1563 1565
1511 1512 1512 1512 1512 1512 1513 1514 1514 1515 1516 1517 1518 1518 1520 1520 1522 1522 1522 1523 1523 1524 1525 1526 1528 1530 1531 1532 1534 1534 1535 1537 1538 1541 1543 1546 1548 1550 1552 1555 1557 1559 1561
1509 1509 1509 1508 1508 1508 1509 1510 1511 1511 1512 1513 1513 1514 1514 1515 1516 1516 1517 1517 1517 1518 1519 1520 1522 1524 1525 1527 1529 1530 1531 1532 1534 1536 1538 1541 1543 1546 1548 1550 1552 1555 1557
1507 1507 1506 1505 1505 1505 1505 1506 1507 1507 1508 1508 1509 1509 1510 1510 1510 1511 1511 1512 1512 1512 1513 1514 1516 1517 1519 1521 1523 1524 1526 1528 1529 1531 1533 1536 1538 1541 1543 1546 1548 1551 1553
1505 1504 1503 1503 1503 1502 1502 1503 1503 1503 1504 1504 1504 1505 1505 1505 1504 1505 1505 1506 1507 1507 1508 1508 1510 1511 1513 1514 1516 1518 1520 1522 1524 1526 1528 1531 1533 1536 1538 1541 1544 1546 1549
1503 1502 1501 1501 1501 1500 1499 1499 1499 1499 1500 1500 1500 1500 1500 1499 1499 1499 1500 1501 1501 1501 1502 1503 1504 1505 1506 1508 1510 1512 1514 1517 1518 1520 1522 1525 1528 1531 1534 1536 1539 1542 1545
1501 1500 1499 1499 1498 1497 1496 1496 1495 1495 1496 1496 1496 1495 1495 1494 1493 1494 1495 1496 1496 1496 1496 1497 1498 1500 1501 1503 1504 1506 1508 1510 1512 1514 1517 1520 1523 1526 1529 1532 1535 1538 1540
1499 1498 1498 1497 1497 1495 1493 1492 1491 1491 1492 1492 1492 1491 1491 1491 1490 1491 1491 1492 1492 1492 1492 1492 1493 1494 1496 1497 1498 1500 1502 1504 1506 1509 1511 1514 1517 1521 1524 1527 1530 1533 1536
1497 1496 1496 1496 1495 1493 1491 1490 1488 1488 1488 1489 1489 1490 1490 1489 1488 1486 1487 1488 1488 1487 1488 1488 1488 1489 1490 1491 1492 1494 1496 1498 1500 1502 1505 1508 1511 1515 1519 1522 1525 1528 1531
1495 1494 1494 1494 1493 1491 1490 1488 1486 1485 1485 1485 1486 1486 1488 1487 1487 1483 1482 1483 1483 1483 1483 1483 1483 1484 1485 1485 1486 1488 1489 1492 1494 1497 1500 1502 1505 1509 1513 1516 1519 1522 1524
1491 1491 1491 1491 1490 1489 1488 1487 1485 1483 1483 1482 1482 1483 1484 1484 1484 1483 1478 1477 1477 1478 1478 1478 1478 1479 1479 1480 1481 1482 1484 1487 1489 1492 1495 1498 1500 1503 1507 1510 1513 1515 1518
1485 1485 1485 1486 1486 1485 1485 1484 1483 1481 1480 1480 1480 1480 1480 1480 1479 1478 1476 1473 1472 1472 1473 1473 1473 1474 1474 1475 1477 1478 1480 1482 1485 1488 1490 1493 1495 1497 1501 1504 1506 1508 1510
1479 1479 1478 1478 1479 1480 1480 1480 1480 1478 1477 1476 1476 1476 1476 1476 1475 1474 1473 1471 1469 1467 1467 1468 1469 1469 1470 1471 1473 1475 1477 1479 1481 1483 1486 1489 1491 1494 1496 1498 1501 1502 1504
1473 1472 1471 1471 1472 1474 1474 1475 1475 1475 1474 1473 1473 1473 1473 1472 1471 1470 1469 1469 1466 1464 1463 1464 1465 1465 1467 1468 1470 1472 1474 1476 1478 1480 1482 1485 1487 1489 1492 1494 1496 1497 1498
1468 1466 1465 1465 1466 1467 1468 1469 1469 1470 1470 1469 1469 1469 1469 1468 1468 1467 1466 1465 1465 1462 1460 1460 1461 1462 1464 1465 1467 1469 1471 1473 1475 1477 1479 1482 1484 1486 1488 1489 1491 1492 1493
1463 1461 1460 1460 1460 1460 1461 1462 1463 1464 1464 1464 1464 1464 1464 1464 1464 1463 1462 1461 1460 1459 1457 1457 1458 1459 1461 1462 1464 1466 1468 1470 1472 1475 1477 1479 1481 1483 1484 1486 1487 1488 1490
1458 1457 1455 1454 1454 1454 1454 1455 1456 1457 1458 1458 1459 1459 1459 1459 1459 1459 1458 1457 1456 1455 1453 1453 1454 1456 1457 1459 1461 1463 1466 1468 1470 1473 1475 1477 1479 1481 1482 1484 1485 1486 1488
1454 1452 1450 1449 1448 1447 1447 1447 1448 1449 1450 1452 1452 1453 1454 1454 1454 1454 1453 1452 1451 1449 1448 1448 1450 1452 1454 1457 1459 1462 1464 1467 1469 1472 1474 1476 1479 1481 1483 1484 1485 1486 1488
1448 1447 1446 1444 1442 1441 1441 1441 1441 1442 1443 1444 1445 1446 1447 1448 1448 1448 1448 1446 1446 1444 1443 1444 1446 1449 1452 1454 1457 1461 1464 1466 1469 1472 1475 1477 1479 1482 1484 1485 1486 1487 1488
1441 1440 1440 1439 1437 1436 1435 1435 1435 1435 1436 1436 1438 1439 1441 1442 1442 1442 1442 1441 1440 1439 1438 1439 1442 1446 1449 1452 1455 1459 1463 1466 1469 1473 1476 1478 1481 1483 1485 1487 1488 1489 1490
1433 1433 1432 1432 1432 1431 1430 1429 1429 1429 1429 1429 1430 1432 1433 1435 1436 1437 1436 1435 1434 1433 1432 1434 1438 1441 1445 1449 1452 1457 1461 1465 1470 1474 1476 1480 1483 1485 1487 1489 1490 1491 1492
1425 1424 1424 1424 1424 1424 1424 1424 1424 1423 1423 1423 1423 1424 1426 1429 1430 1431 1431 1430 1429 1428 1428 1430 1433 1437 1441 1445 1450 1454 1459 1463 1468 1474 1477 1481 1485 1487 1489 1491 1492 1493 1494
1416 1416 1416 1416 1416 1416 1417 1418 1418 1417 1417 1416 1416 1417 1419 1422 1424 1425 1426 1425 1424 1423 1424 1426 1429 1433 1438 1442 1447 1453 1458 1462 1466 1473 1478 1481 1486 1488 1490 1492 1494 1495 1495
1407 1407 1407 1407 1407 1408 1409 1410 1411 1411 1411 1410 1410 1410 1412 1415 1418 1420 1421 1422 1421 1420 1421 1424 1428 1432 1437 1442 1447 1452 1458 1464 1470 1475 1480 1482 1487 1489 1492 1494 1495 1496 1496
1397 1398 1398 1398 1399 1400 1402 1403 1404 1405 1404 1404 1403 1404 1406 1409 1412 1416 1418 1419 1418 1419 1421 1424 1428 1433 1438 1443 1449 1454 1459 1465 1470 1476 1481 1483 1487 1490 1493 1495 1497 1498 1498
1387 1388 1388 1389 1390 1391 1394 1395 1397 1398 1399 1398 1398 1398 1400 1403 1408 1411 1414 1416 1417 1419 1421 1425 1430 1436 1441 1446 1452 1456 1460 1464 1469 1475 1481 1484 1487 1490 1494 1496 1498 1499 1500